{"data":{"norad_id":67522,"intl_designator":"2026-013A","name":"HULIANWANG DIGUI-146","alt_names":[],"object_type":"PAYLOAD","status":"ACTIVE","operator":null,"country":"PRC","launch_date":"2026-01-19","launch_site_code":"WSC","launch_vehicle":null,"mission":null,"orbit_class":"UNKNOWN","rcs_meters":null,"size_class":null,"mass_kg":null,"dimensions":null,"purposes":[],"wikipedia_slug":null,"has_3d_model":false,"image_url":null,"decayed_at":null,"tle_current":{"epoch":"2026-05-25T01:53:38.916096Z","epoch_age_seconds":71522,"freshness":"FRESH","line1":"1 67522U 26013A   26145.07892264 -.00000085  00000+0  83214-4 0  9995","line2":"2 67522  50.0082  78.7675 0000968  24.8827 335.2092 13.29328403 16975","mean_motion":13.29328403,"eccentricity":9.68e-5,"inclination_deg":50.0082,"raan_deg":78.7675,"arg_perigee_deg":24.8827,"mean_anomaly_deg":335.2092,"bstar":8.3214e-5,"rev_number":1697,"period_min":108.32537669023,"perigee_km":1148.56884472,"apogee_km":1150.0261560393,"semimajor_km":7527.4345003796,"source":"CELESTRAK","updated_at":"2026-05-25T13:38:07.049214Z"}}}